クリステンセン彗星

210P/Christensen (2008)

English version
Home page
Updated on March 17, 2010

---------------------------------------------------------------------

・ プロフィール

符号 210P/2008 X4
再発見日 2008年12月8日
再発見光度
再発見者 A. Watson (SECCHI HI1-B images via the STEREO-B spacecraft)

・ 写真集

・ 軌道要素

Epoch 2008 Nov. 30.0 TT = JDT 2454800.5
T 2008 Dec. 19.97242 TT                                 MPC
q   0.5349519            (2000.0)            P               Q
n   0.17403149     Peri.  345.78070     +0.17546683     -0.96845400
a   3.1772459      Node    93.88730     +0.91969130     +0.09712353
e   0.8316303      Incl.   10.21541     +0.35125391     +0.22948609
P   5.66

・ 星図

・ 光度変化

        m1 = 14.0 + 5 logΔ + 15.0 log r

---------------------------------------------------------------------

軌道要素はM.P.E.C. 2009-A01に掲載されたものです。
星図は StellaNavigator Ver.2.0 for Windows (アストロアーツ編著 / アスキー出版局刊) で作成したものです。
光度グラフはComet for Windowsで作成したものです。

---------------------------------------------------------------------

Copyright(C) Seiichi Yoshida (comet@aerith.net). All rights reserved.